Weather History for Ishigakijima, Japan

Change the Weather History Date:

Wednesday, March 20, 2013

  Actual Average Record
Temperature  
Mean Temperature 77 °F -  
Max Temperature 81 °F 74 °F 81 °F (2013)
Min Temperature 73 °F 67 °F 60 °F (2007)
Cooling Degree Days 12    
Growing Degree Days 27 (Base 50)    
Moisture  
Dew Point 73 °F    
Average Humidity 87    
Maximum Humidity 96    
Minimum Humidity 75    
Precipitation  
Precipitation 0.12 in - - ()
Sea Level Pressure  
Sea Level Pressure 29.90 in    
Wind  
Wind Speed 11 mph ()    
Max Wind Speed 20 mph    
Max Gust Speed -    
Visibility 5.2 miles    
Events Rain , Thunderstorm    
Averages and records for this station are not official NWS values.
T = Trace of Precipitation, MM = Missing Value Source: Averaged Metar Reports

Daily Weather History Graph

Daily Weather History Graph

Search for Another Location

Airport:

Trip Planner

Search our weather history database for the weather conditions in past years. The results will help you decide how hot, cold, wet, or windy it might be!

Date:

Astronomy

Mar. 20, 2013 Rise Set
Actual Time 6:47 AM JST 6:54 PM JST
Civil Twilight 6:24 AM JST 7:17 PM JST
Nautical Twilight 5:58 AM JST 7:43 PM JST
Astronomical Twilight 5:32 AM JST 8:10 PM JST
Moon 12:32 PM JST (3/20) 1:25 AM JST (3/20)
Length of Visible Light 12h 52m
Length of Day
12h 06m
First Quarter, 54% of the Moon is Illuminated
Mar 20
First Quarter
Mar 27
Full
Apr 3
Last Quarter
Apr 10
New
Apr 18
First Quarter

Hourly Weather History & Observations

Time (JST) Temp. Heat Index Dew Point Humidity Pressure Visibility Wind Dir Wind Speed Gust Speed Precip Events Conditions
12:00 AM 75 °F - 74 °F 96% 29.91 in - SSW 10.4 mph - -  
3:00 AM 75 °F - 74 °F 95% 29.86 in 4 mi SSW 11.5 mph - -   Mist
6:00 AM 76 °F - 74 °F 93% 29.82 in 5 mi South 19.6 mph - -   Mist
6:00 AM 75.2 °F - 73.4 °F 94% 29.80 in 5.0 mi SSW 17.3 mph - N/A   Scattered Clouds
7:00 AM 75.2 °F - 73.4 °F 94% 29.86 in 5.0 mi SW 13.8 mph - N/A   Scattered Clouds
8:00 AM 75.2 °F - 73.4 °F 94% 29.89 in 5.0 mi SW 11.5 mph - N/A   Scattered Clouds
9:00 AM 76 °F - 74 °F 91% 29.94 in 6 mi SSW 10.4 mph - - Rain Light Rain Showers
9:00 AM 77.0 °F - 73.4 °F 89% 29.92 in 6.2 mi SW 12.7 mph - N/A   Mostly Cloudy
10:00 AM 78.8 °F - 73.4 °F 83% 29.92 in 6.2 mi SW 13.8 mph - N/A   Scattered Clouds
11:00 AM 78.8 °F - 73.4 °F 83% 29.92 in 6.2 mi SSW 16.1 mph - N/A   Partly Cloudy
12:00 PM 80 °F - 74 °F 77% 29.93 in 9 mi South 12.7 mph - -   Scattered Clouds
12:00 PM 80.6 °F 85.4 °F 73.4 °F 79% 29.89 in 6.2 mi SSW 17.3 mph - N/A   Partly Cloudy
1:00 PM 80.6 °F 85.4 °F 73.4 °F 79% 29.89 in 6.2 mi SSW 16.1 mph - N/A   Scattered Clouds
2:00 PM 80.6 °F 85.4 °F 73.4 °F 79% 29.86 in 6.2 mi SW 17.3 mph - N/A   Partly Cloudy
3:00 PM 81 °F - 74 °F 75% 29.89 in 6 mi SSW 10.4 mph - -   Partly Cloudy
3:00 PM 80.6 °F 85.4 °F 73.4 °F 79% 29.86 in 6.2 mi SSW 18.4 mph - N/A   Partly Cloudy
4:00 PM 80.6 °F 85.4 °F 73.4 °F 79% 29.86 in 6.2 mi SW 12.7 mph - N/A   Scattered Clouds
5:00 PM 78.8 °F - 73.4 °F 83% 29.86 in 6.2 mi SW 13.8 mph - N/A   Partly Cloudy
6:00 PM 78 °F - 74 °F 85% 29.91 in 6 mi WSW 3.5 mph - -   Scattered Clouds
6:00 PM 77.0 °F - 73.4 °F 89% 29.89 in 6.2 mi SW 8.1 mph - N/A   Scattered Clouds
7:00 PM 77.0 °F - 73.4 °F 89% 29.89 in 6.2 mi West 4.6 mph - N/A   Mostly Cloudy
7:18 PM 75.2 °F - 68.0 °F 78% 29.92 in 4.3 mi North 8.1 mph - N/A Thunderstorm Thunderstorm
7:48 PM 73.4 °F - 69.8 °F 88% 29.92 in 2.5 mi North 10.4 mph - N/A Rain Rain Showers
8:00 PM 73.4 °F - 71.6 °F 94% 29.92 in 2.5 mi NNE 11.5 mph - N/A Rain Rain Showers
8:12 PM 73.4 °F - 71.6 °F 94% 29.92 in 3.7 mi NNE 12.7 mph - N/A Rain Light Rain Showers
8:19 PM 73.4 °F - 71.6 °F 94% 29.92 in 3.7 mi NNE 10.4 mph - N/A Rain , Thunderstorm Light Thunderstorms and Rain
8:40 PM 73.4 °F - 69.8 °F 88% 29.95 in 2.5 mi NNE 11.5 mph - N/A Rain Rain Showers
9:00 PM 74 °F - 71 °F 89% 29.97 in 3 mi NNE 15.0 mph - - Rain Light Rain